Location: Podia
(1.5569°N, 32.3469°E)
Time: 04:28:40
(UTC+00:00)

ARIANE 5 DEB (SYLDA) - Visible Passes

Search period start: 04 August 2021 00:00
Search period end: 14 August 2021 00:00
Orbit: 285 x 11734 km, 6.8° (Epoch: 03 August)

Date Brightness Start Highest point End Pass type
(mag) Time Alt. Az. Time Alt. Az. Time Alt. Az.
04 Aug 7.6 17:19:55 10° WSW 17:38:26 72° S 19:20:12 10° E visible
04 Aug 8.9 21:32:19 10° W 23:05:03 88° S 00:05:51 10° E visible
05 Aug 7.1 02:47:37 10° W 04:01:00 76° N 04:12:32 10° E visible
05 Aug 6.9 16:07:33 10° WSW 16:19:03 67° S 17:15:08 16° E visible
05 Aug 8.7 20:14:14 10° W 21:48:46 68° E 22:47:40 10° E visible
06 Aug 7.8 01:37:18 29° W 02:41:32 81° N 03:00:07 10° E visible
06 Aug 8.4 18:58:46 10° WSW 19:34:17 79° S 21:24:25 10° E visible
06 Aug 8.4 23:23:47 10° W 01:15:24 85° N 01:46:35 10° E visible
07 Aug 7.8 17:44:51 10° WSW 18:05:48 74° S 19:51:57 10° E visible
07 Aug 8.8 21:58:57 10° W 23:37:34 89° N 00:31:22 10° E visible
08 Aug 6.9 03:22:25 10° W 04:26:41 74° N 04:37:01 10° E visible
08 Aug 7.1 16:31:52 10° WSW 16:44:44 69° S 17:35:39 22° E visible
08 Aug 8.8 20:39:30 10° W 22:09:08 76° E 23:13:31 10° E visible
09 Aug 7.6 01:57:35 23° W 03:07:43 79° N 03:24:18 10° E visible
09 Aug 6.3 15:19:25 10° WSW 15:27:33 62° S 16:11:14 10° E visible
09 Aug 8.5 19:23:03 10° WSW 20:03:13 82° S 21:51:11 10° E visible
09 Aug 8.3 23:51:25 10° W 01:42:53 82° N 02:10:33 10° E visible
10 Aug 7.9 18:08:22 10° WSW 18:31:50 77° S 20:20:47 10° E visible
10 Aug 8.8 22:24:15 10° W 00:07:22 86° N 00:55:16 10° E visible
11 Aug 7.2 16:54:45 10° WSW 17:09:01 71° S 17:54:50 28° E visible
11 Aug 8.8 21:03:22 10° W 22:28:13 84° E 23:37:34 10° E visible
12 Aug 7.5 02:16:37 17° W 03:32:05 77° N 03:47:00 10° E visible
12 Aug 6.5 15:41:45 10° WSW 15:50:44 63° S 16:41:29 10° E visible
12 Aug 8.6 19:45:56 10° W 20:30:44 84° S 22:15:52 10° E visible
13 Aug 8.2 00:17:51 10° W 02:08:13 81° N 02:33:01 10° E visible
13 Aug 8.0 18:30:28 10° WSW 18:56:27 79° S 20:47:00 10° E visible
